Location: Bonningues
(50.7927°N, 2.0150°E)
Time: 21:44:56
(UTC+00:00)

Cosmos 2219 Rocket - Pass Details

Date: 08 August 2020
Orbit: 826 x 848 km, 71.0° (Epoch: 22 September)

Event Time Altitude Azimuth Distance (km) Brightness Sun altitude
Rises 21:44:56 0° 331° (NNW) 3,413 7.1 -17.4°
Reaches altitude 10° 21:47:59 10° 347° (NNW) 2,478 5.7 -17.6°
Maximum altitude 21:52:20 22° 37° (NE) 1,778 4.1 -18.0°
Drops below altitude 10° 21:56:41 10° 87° (E) 2,476 4.4 -18.3°
Enters shadow 21:57:06 - 90° (E) 2,592 4.4 -18.4°
